Location: Praha
(50.0830°N, 14.4670°E)
Time: 18:00:02
(UTC+02:00)

ISS - Pass Details

Date: 13 July 2021
Orbit: 419 x 421 km, 51.6° (Epoch: 02 August)

Event Time Altitude Azimuth Distance (km) Brightness Sun altitude
Rises 01:17:42 0° 265° (W) 2,367 0.0 -18.1°
Reaches altitude 10° 01:19:49 10° 268° (W) 1,503 -1.0 -18.0°
Maximum altitude 01:23:10 69° 352° (N) 454 -3.5 -18.0°
Drops below altitude 10° 01:26:33 10° 77° (ENE) 1,504 -0.7 -18.0°
Sets 01:28:39 0° 80° (E) 2,369 0.3 -17.9°
